Simultaneous Nadir Overpasses (SNOs) Predictions

Prediction of SNOs between GOES-16 and NOAA-20 Satellite Orbit:

Table of predicted SNOs for the next 14.0 days since TLE Epoch: 6/14/2024
Index Date Time (GOES-16) GOES-16 Lat,Lon NOAA-20 Lat,Lon Distance(km) Time Diff (sec)
1 06/15/2024 06:17:03 0.01, -75.20 -0.34, -73.46 197.31 80
2 06/16/2024 18:41:36 -0.02, -75.21 -0.82, -78.76 405.12 80
3 06/17/2024 18:20:08 -0.01, -75.21 0.20, -74.22 112.80 80
4 06/19/2024 06:44:32 0.01, -75.22 0.99, -79.47 484.74 80
5 06/20/2024 06:23:05 0.01, -75.23 -0.09, -74.95 33.32 80
6 06/22/2024 18:28:49 0.00, -75.24 -0.11, -75.69 51.07 80
7 06/23/2024 18:07:21 0.01, -75.25 0.92, -71.15 467.17 80
8 06/25/2024 06:31:45 -0.00, -75.27 0.26, -76.40 129.66 80
9 06/26/2024 06:10:17 -0.01, -75.28 -0.77, -71.87 389.06 80
10 06/27/2024 18:34:49 0.00, -75.30 -0.44, -77.15 211.88 80
11 06/28/2024 18:13:21 0.00, -75.31 0.59, -72.61 307.38 80
